contact:dominique.lefevre@mio.osupytheas.fr, maurice.libes@osupytheas.fr, didier.mallarino@osupytheas.fr
Project:EMSO http://www.emso-fr.org/EMSO-France
Depth: 2436.0 m
Title:EMSO Ligure Ouest : Data MII capteur AQUADOPP
Date,Latitude,Longitude,X_East,Y_North,Z_Up,Amplitude_X,Amplitude_Y,Amplitude_Z,Batterie,SoundSpeed,Heading,Pitch,Roll,Pressure,TIS,Speed,Direction
, degrees North, degrees East, m.s-1, m.s-1,m.s-1, 1, 1, 1, Volt, m.s-1, degree, degree, degree, dbar, degree_C, m.s-1, degree
2021-12-15T08:37:03,42.805,6.029,0.036,-0.026,-0.022,102.0,103.0,102.0,13.3,1505.1,329.5,-0.8,1.8,2470.889,13.27,0.044,125.8
2021-12-15T08:40:03,42.805,6.029,0.044,0.017,0.021,101.0,105.0,101.0,13.3,1505.1,329.9,-0.8,1.9,2470.784,13.27,0.047,68.9
2021-12-15T08:43:03,42.805,6.029,0.028,-0.003,-0.007,104.0,104.0,102.0,13.4,1505.2,329.6,-0.7,1.8,2470.657,13.28,0.028,96.1
2021-12-15T08:46:03,42.805,6.029,0.063,-0.007,0.014,102.0,105.0,101.0,13.4,1505.2,326.6,-0.8,1.8,2470.615,13.28,0.063,96.3
2021-12-15T08:49:03,42.805,6.029,0.063,-0.002,0.013,103.0,105.0,101.0,13.4,1505.2,326.6,-0.8,1.8,2470.57,13.28,0.063,91.8
2021-12-15T08:52:03,42.805,6.029,0.04,-0.01,0.009,102.0,103.0,101.0,13.4,1505.2,326.4,-0.7,1.8,2470.539,13.28,0.041,104.0
2021-12-15T08:55:03,42.805,6.029,0.032,-0.026,-0.008,103.0,105.0,101.0,13.4,1505.2,326.8,-0.7,1.8,2470.514,13.28,0.041,129.1
2021-12-15T08:58:03,42.805,6.029,0.035,-0.013,0.0,103.0,102.0,102.0,13.4,1505.2,327.5,-0.7,1.8,2470.47,13.28,0.037,110.4
2021-12-15T09:04:03,42.805,6.029,0.048,-0.023,-0.021,103.0,104.0,102.0,13.4,1505.2,328.5,-0.8,1.8,2470.534,13.28,0.053,115.6
2021-12-15T09:07:03,42.805,6.029,0.034,0.0,0.016,104.0,104.0,101.0,13.4,1505.2,329.3,-0.7,1.8,2470.507,13.28,0.034,90.0
2021-12-15T09:10:03,42.805,6.029,0.035,-0.007,-0.016,103.0,103.0,102.0,13.4,1505.2,330.2,-0.8,1.8,2470.496,13.28,0.035,101.3
2021-12-15T09:13:03,42.805,6.029,0.049,-0.026,0.01,102.0,105.0,101.0,13.4,1505.2,331.1,-0.8,1.8,2470.486,13.28,0.055,117.9
2021-12-15T09:16:03,42.805,6.029,0.026,-0.01,-0.03,102.0,105.0,101.0,13.3,1505.2,324.6,-0.7,1.8,2470.508,13.28,0.027,111.0
2021-12-15T09:19:03,42.805,6.029,0.056,-0.002,0.008,102.0,104.0,102.0,13.4,1505.2,329.2,-0.7,1.8,2470.473,13.28,0.056,92.0
2021-12-15T09:22:03,42.805,6.029,0.046,-0.009,0.003,104.0,103.0,101.0,13.4,1505.2,328.1,-0.8,1.9,2470.533,13.28,0.046,101.1
2021-12-15T09:25:03,42.805,6.029,0.058,-0.011,-0.001,103.0,104.0,102.0,13.4,1505.2,326.0,-0.8,1.8,2470.509,13.28,0.059,100.7
2021-12-15T09:28:03,42.805,6.029,0.041,-0.011,-0.021,103.0,103.0,101.0,13.3,1505.2,327.7,-0.8,1.8,2470.497,13.28,0.042,105.0
2021-12-15T09:31:03,42.805,6.029,0.06,-0.002,-0.001,104.0,103.0,101.0,13.3,1505.2,328.3,-0.8,1.8,2470.49,13.28,0.06,91.9
2021-12-15T09:34:03,42.805,6.029,0.064,-0.011,0.019,102.0,104.0,100.0,13.4,1505.2,328.3,-0.8,1.8,2470.542,13.28,0.064,99.8
2021-12-15T09:37:03,42.805,6.029,0.041,-0.027,-0.024,103.0,104.0,102.0,13.4,1505.2,328.0,-0.8,1.8,2470.529,13.28,0.049,123.4
2021-12-15T09:40:03,42.805,6.029,0.04,-0.025,0.004,103.0,104.0,101.0,13.3,1505.2,329.9,-0.8,1.8,2470.511,13.28,0.047,122.0
2021-12-15T09:43:03,42.805,6.029,0.042,-0.001,-0.007,103.0,106.0,100.0,13.4,1505.2,326.8,-0.8,1.8,2470.536,13.28,0.042,91.4
2021-12-15T09:46:03,42.805,6.029,0.049,-0.004,0.008,104.0,105.0,101.0,13.4,1505.2,325.7,-0.8,1.8,2470.563,13.28,0.049,94.7
2021-12-15T09:49:03,42.805,6.029,0.038,-0.007,-0.005,103.0,102.0,101.0,13.3,1505.2,326.7,-0.7,1.8,2470.491,13.28,0.038,100.4
2021-12-15T09:52:03,42.805,6.029,0.036,-0.002,-0.004,102.0,102.0,102.0,13.4,1505.2,325.7,-0.7,1.8,2470.559,13.28,0.036,93.2
2021-12-15T09:55:03,42.805,6.029,0.032,-0.022,-0.019,103.0,104.0,101.0,13.4,1505.2,328.5,-0.8,1.8,2470.536,13.28,0.038,124.5
2021-12-15T09:58:03,42.805,6.029,0.057,-0.002,0.007,103.0,104.0,102.0,13.4,1505.2,330.7,-0.8,1.8,2470.555,13.28,0.057,92.0
2021-12-15T10:04:03,42.805,6.029,0.024,-0.03,-0.011,103.0,104.0,100.0,13.3,1505.2,328.9,-0.8,1.8,2470.558,13.28,0.038,141.3
2021-12-15T10:07:03,42.805,6.029,0.059,-0.02,0.021,103.0,104.0,101.0,13.4,1505.2,329.1,-0.7,1.8,2470.583,13.28,0.062,108.7
2021-12-15T10:10:03,42.805,6.029,0.064,-0.011,0.042,103.0,104.0,101.0,13.3,1505.2,330.5,-0.8,1.8,2470.572,13.28,0.064,99.8
2021-12-15T10:13:03,42.805,6.029,0.044,-0.004,0.02,103.0,103.0,101.0,13.3,1505.2,330.6,-0.8,1.8,2470.557,13.28,0.044,95.2
2021-12-15T10:16:03,42.805,6.029,0.061,-0.025,-0.004,102.0,104.0,101.0,13.4,1505.2,328.2,-0.7,1.8,2470.555,13.28,0.065,112.3
2021-12-15T10:19:03,42.805,6.029,0.03,-0.016,0.01,101.0,105.0,102.0,13.3,1505.2,328.3,-0.7,1.8,2470.546,13.28,0.034,118.1
2021-12-15T10:22:03,42.805,6.029,0.063,-0.011,0.008,103.0,102.0,102.0,13.3,1505.2,331.7,-0.7,1.8,2470.505,13.28,0.063,99.9
2021-12-15T10:25:03,42.805,6.029,0.046,-0.003,0.015,103.0,103.0,102.0,13.4,1505.2,325.8,-0.8,1.8,2470.541,13.28,0.046,93.7
2021-12-15T10:28:03,42.805,6.029,0.056,0.003,-0.004,103.0,103.0,102.0,13.4,1505.2,326.2,-0.8,1.8,2470.489,13.28,0.056,86.9
2021-12-15T10:31:03,42.805,6.029,0.051,0.005,-0.001,103.0,103.0,102.0,13.4,1505.2,324.4,-0.8,1.8,2470.524,13.28,0.051,84.4
2021-12-15T10:34:03,42.805,6.029,0.037,-0.002,0.015,103.0,103.0,101.0,13.4,1505.2,329.7,-0.8,1.8,2470.518,13.28,0.037,93.1
2021-12-15T10:37:03,42.805,6.029,0.033,0.002,0.0,103.0,103.0,101.0,13.4,1505.2,331.1,-0.7,1.9,2470.549,13.28,0.033,86.5
2021-12-15T10:40:03,42.805,6.029,0.039,-0.014,-0.029,102.0,103.0,102.0,13.3,1505.2,331.0,-0.7,1.8,2470.56,13.28,0.041,109.7
2021-12-15T10:43:03,42.805,6.029,0.054,-0.007,-0.009,104.0,102.0,101.0,13.4,1505.2,326.4,-0.7,1.8,2470.518,13.28,0.054,97.4
2021-12-15T10:46:03,42.805,6.029,0.025,0.003,0.019,103.0,104.0,101.0,13.3,1505.2,328.3,-0.7,1.8,2470.53,13.28,0.025,83.2
2021-12-15T10:49:03,42.805,6.029,0.057,-0.009,0.013,103.0,104.0,101.0,13.4,1505.2,327.7,-0.8,1.9,2470.544,13.28,0.057,99.0
2021-12-15T10:52:03,42.805,6.029,0.029,-0.003,-0.033,102.0,105.0,101.0,13.3,1505.2,326.6,-0.8,1.8,2470.498,13.28,0.029,95.9
2021-12-15T10:55:03,42.805,6.029,0.051,0.0,-0.008,102.0,103.0,101.0,13.4,1505.2,324.1,-0.8,1.8,2470.467,13.28,0.051,90.0
2021-12-15T10:58:03,42.805,6.029,0.017,0.0,0.02,103.0,104.0,102.0,13.4,1505.2,331.8,-0.7,1.9,2470.535,13.28,0.017,90.0
2021-12-15T11:04:03,42.805,6.029,0.02,-0.011,-0.034,102.0,104.0,101.0,13.3,1505.2,329.9,-0.7,1.8,2470.583,13.28,0.022,118.8
2021-12-15T11:07:03,42.805,6.029,0.03,-0.004,-0.006,102.0,103.0,101.0,13.4,1505.2,327.3,-0.7,1.8,2470.632,13.28,0.03,97.6
2021-12-15T11:10:03,42.805,6.029,0.045,-0.02,0.018,102.0,104.0,101.0,13.4,1505.2,331.0,-0.7,1.8,2470.511,13.28,0.049,114.0
2021-12-15T11:13:03,42.805,6.029,0.033,-0.007,0.004,102.0,103.0,101.0,13.4,1505.2,325.7,-0.8,1.8,2470.567,13.28,0.033,102.0
2021-12-15T11:16:03,42.805,6.029,0.05,-0.003,0.029,102.0,103.0,101.0,13.4,1505.2,328.2,-0.8,1.8,2470.545,13.28,0.05,93.4
2021-12-15T11:19:03,42.805,6.029,0.04,-0.019,-0.008,104.0,104.0,100.0,13.4,1505.2,328.0,-0.7,1.8,2470.564,13.28,0.044,115.4
2021-12-15T11:22:03,42.805,6.029,0.057,-0.009,0.002,103.0,105.0,102.0,13.4,1505.2,328.6,-0.7,1.8,2470.515,13.28,0.057,99.0
2021-12-15T11:25:03,42.805,6.029,0.047,-0.013,-0.021,103.0,104.0,100.0,13.3,1505.2,331.0,-0.8,1.8,2470.502,13.28,0.048,105.5
2021-12-15T11:28:03,42.805,6.029,0.048,0.0,-0.004,102.0,102.0,102.0,13.3,1505.2,324.4,-0.8,1.8,2470.532,13.28,0.048,90.0
2021-12-15T11:31:03,42.805,6.029,0.052,-0.01,0.003,101.0,105.0,101.0,13.4,1505.2,328.1,-0.7,1.8,2470.512,13.28,0.052,100.9
2021-12-15T11:34:03,42.805,6.029,0.058,-0.006,0.013,102.0,104.0,101.0,13.4,1505.2,326.6,-0.8,1.8,2470.511,13.28,0.058,95.9
2021-12-15T11:37:03,42.805,6.029,0.04,0.0,0.031,103.0,104.0,101.0,13.4,1505.2,329.5,-0.8,1.9,2470.55,13.28,0.04,90.0
2021-12-15T11:40:03,42.805,6.029,0.046,-0.003,-0.002,103.0,104.0,100.0,13.3,1505.2,329.9,-0.7,1.8,2470.53,13.28,0.046,93.7
2021-12-15T11:43:03,42.805,6.029,0.036,-0.004,0.005,103.0,103.0,102.0,13.4,1505.2,327.0,-0.8,1.8,2470.509,13.28,0.036,96.3
2021-12-15T11:46:03,42.805,6.029,0.009,-0.006,-0.014,101.0,104.0,102.0,13.4,1505.2,328.1,-0.7,1.8,2470.522,13.28,0.01,123.7
2021-12-15T11:49:03,42.805,6.029,0.038,0.006,0.01,102.0,106.0,101.0,13.4,1505.2,325.6,-0.7,1.8,2470.537,13.28,0.038,81.0
2021-12-15T11:52:03,42.805,6.029,0.03,0.008,0.021,102.0,103.0,102.0,13.4,1505.2,329.1,-0.7,1.8,2470.504,13.28,0.031,75.1
2021-12-15T11:55:03,42.805,6.029,0.071,0.018,0.04,102.0,105.0,101.0,13.4,1505.2,326.3,-0.8,1.8,2470.511,13.28,0.073,75.8
2021-12-15T11:58:03,42.805,6.029,0.07,-0.015,-0.016,104.0,104.0,101.0,13.4,1505.2,331.2,-0.8,1.8,2470.51,13.28,0.071,102.1
2021-12-15T12:04:03,42.805,6.029,0.045,-0.022,-0.01,103.0,104.0,102.0,13.4,1505.2,325.8,-0.8,1.8,2470.572,13.28,0.05,116.1
2021-12-15T12:07:03,42.805,6.029,0.024,-0.01,-0.016,102.0,104.0,102.0,13.3,1505.2,330.5,-0.8,1.8,2470.547,13.28,0.026,112.6
2021-12-15T12:10:03,42.805,6.029,0.058,-0.018,0.014,102.0,104.0,102.0,13.4,1505.2,327.4,-0.7,1.8,2470.578,13.28,0.06,107.2
2021-12-15T12:13:03,42.805,6.029,0.048,-0.014,0.041,103.0,104.0,101.0,13.4,1505.2,326.0,-0.8,1.8,2470.553,13.28,0.05,106.3
2021-12-15T12:16:03,42.805,6.029,0.033,0.009,0.016,103.0,105.0,101.0,13.4,1505.2,327.6,-0.8,1.8,2470.539,13.28,0.034,74.7
2021-12-15T12:19:03,42.805,6.029,0.036,-0.014,0.026,103.0,103.0,100.0,13.4,1505.2,328.9,-0.7,1.8,2470.565,13.28,0.038,111.2
2021-12-15T12:22:03,42.805,6.029,0.063,0.0,0.002,103.0,103.0,101.0,13.3,1505.2,329.4,-0.8,1.8,2470.524,13.28,0.062,90.0
2021-12-15T12:25:03,42.805,6.029,0.072,-0.006,0.007,102.0,105.0,101.0,13.3,1505.2,327.1,-0.8,1.8,2470.516,13.28,0.072,94.8
2021-12-15T12:28:03,42.805,6.029,0.043,-0.01,-0.015,103.0,105.0,101.0,13.3,1505.2,326.1,-0.7,1.8,2470.489,13.28,0.044,103.1
2021-12-15T12:31:03,42.805,6.029,0.052,-0.017,-0.005,101.0,105.0,101.0,13.4,1505.2,325.9,-0.7,1.8,2470.542,13.28,0.054,108.1
2021-12-15T12:34:03,42.805,6.029,0.042,-0.004,0.001,102.0,106.0,100.0,13.4,1505.2,327.0,-0.7,1.8,2470.546,13.28,0.042,95.4
2021-12-15T12:37:03,42.805,6.029,0.055,0.001,0.022,103.0,104.0,101.0,13.4,1505.2,328.5,-0.7,1.8,2470.51,13.28,0.055,89.0
2021-12-15T12:40:03,42.805,6.029,0.051,-0.01,-0.001,103.0,105.0,101.0,13.3,1505.2,325.8,-0.8,1.8,2470.52,13.28,0.051,101.1
2021-12-15T12:43:03,42.805,6.029,0.051,-0.017,-0.035,103.0,104.0,101.0,13.3,1505.2,324.4,-0.7,1.8,2470.522,13.28,0.053,108.4
2021-12-15T12:46:03,42.805,6.029,0.044,-0.01,0.016,102.0,105.0,101.0,13.4,1505.2,331.5,-0.8,1.8,2470.572,13.28,0.045,102.8
2021-12-15T12:49:03,42.805,6.029,0.043,-0.011,-0.027,100.0,103.0,102.0,13.4,1505.2,329.8,-0.8,1.8,2470.519,13.28,0.044,104.3
2021-12-15T12:52:03,42.805,6.029,0.062,-0.004,0.017,103.0,104.0,101.0,13.4,1505.2,328.3,-0.8,1.8,2470.493,13.28,0.062,93.7
2021-12-15T12:55:03,42.805,6.029,0.058,-0.009,0.009,103.0,105.0,101.0,13.4,1505.2,326.9,-0.7,1.8,2470.575,13.28,0.058,98.8
2021-12-15T12:58:03,42.805,6.029,0.048,0.003,0.022,102.0,107.0,102.0,13.4,1505.2,331.3,-0.8,1.8,2470.511,13.28,0.048,86.4
2021-12-15T13:04:03,42.805,6.029,0.041,-0.01,0.001,103.0,102.0,102.0,13.4,1505.2,327.4,-0.8,1.8,2470.59,13.28,0.042,103.7
2021-12-15T13:07:03,42.805,6.029,0.023,-0.011,0.02,102.0,104.0,101.0,13.4,1505.2,326.9,-0.8,1.8,2470.602,13.28,0.025,115.6
2021-12-15T13:10:03,42.805,6.029,0.068,0.009,0.008,102.0,105.0,102.0,13.4,1505.2,328.0,-0.8,1.8,2470.558,13.28,0.068,82.5
2021-12-15T13:13:03,42.805,6.029,0.059,-0.011,-0.019,104.0,105.0,102.0,13.4,1505.2,325.5,-0.7,1.8,2470.546,13.28,0.06,100.6
2021-12-15T13:16:03,42.805,6.029,0.045,0.004,0.013,103.0,104.0,101.0,13.4,1505.2,326.2,-0.8,1.8,2470.569,13.28,0.045,84.9
2021-12-15T13:19:03,42.805,6.029,0.058,-0.019,-0.003,103.0,105.0,102.0,13.4,1505.2,325.1,-0.8,1.8,2470.574,13.28,0.061,108.1
2021-12-15T13:22:03,42.805,6.029,0.012,0.038,0.031,102.0,103.0,101.0,13.4,1505.2,327.6,-0.8,1.8,2470.55,13.28,0.039,17.5
2021-12-15T13:25:03,42.805,6.029,0.072,-0.004,0.015,103.0,104.0,101.0,13.4,1505.2,330.6,-0.8,1.8,2470.581,13.28,0.072,93.2
2021-12-15T13:28:03,42.805,6.029,0.028,-0.009,-0.018,105.0,106.0,103.0,13.4,1505.2,326.6,-0.8,1.8,2470.527,13.28,0.029,107.8
2021-12-15T13:31:03,42.805,6.029,0.043,-0.025,-0.024,102.0,103.0,101.0,13.3,1505.2,327.4,-0.7,1.8,2470.558,13.28,0.049,120.2
2021-12-15T13:34:03,42.805,6.029,0.04,0.003,0.023,103.0,105.0,101.0,13.3,1505.2,325.5,-0.8,1.9,2470.581,13.28,0.04,85.7
2021-12-15T13:37:03,42.805,6.029,0.024,-0.017,0.006,102.0,106.0,101.0,13.3,1505.2,328.5,-0.8,1.8,2470.574,13.28,0.029,125.3
2021-12-15T13:40:03,42.805,6.029,0.056,-0.019,0.018,103.0,105.0,101.0,13.4,1505.2,329.1,-0.8,1.8,2470.556,13.28,0.059,108.7
2021-12-15T13:43:03,42.805,6.029,0.034,-0.005,-0.021,102.0,104.0,101.0,13.3,1505.2,329.5,-0.7,1.8,2470.537,13.28,0.034,98.4
2021-12-15T13:46:03,42.805,6.029,0.041,0.016,0.016,104.0,105.0,102.0,13.4,1505.2,329.3,-0.7,1.8,2470.567,13.28,0.044,68.7
2021-12-15T13:49:03,42.805,6.029,0.027,0.0,-0.002,103.0,104.0,101.0,13.4,1505.2,325.2,-0.8,1.8,2470.579,13.28,0.026,90.0
2021-12-15T13:52:03,42.805,6.029,0.029,0.003,0.007,102.0,105.0,101.0,13.4,1505.2,328.3,-0.7,1.8,2470.574,13.28,0.029,84.1
2021-12-15T13:55:03,42.805,6.029,0.047,-0.015,-0.018,102.0,105.0,101.0,13.4,1505.2,327.0,-0.8,1.8,2470.626,13.28,0.049,107.7
2021-12-15T13:58:03,42.805,6.029,0.065,-0.01,-0.011,102.0,104.0,102.0,13.4,1505.2,324.8,-0.7,1.8,2470.598,13.28,0.065,98.7
2021-12-15T14:04:03,42.805,6.029,0.04,0.006,0.024,103.0,103.0,101.0,13.4,1505.2,325.6,-0.8,1.8,2470.65,13.28,0.04,81.5
2021-12-15T14:07:03,42.805,6.029,0.026,0.005,0.016,103.0,103.0,100.0,13.4,1505.2,328.9,-0.8,1.8,2470.686,13.28,0.026,79.1
2021-12-15T14:10:03,42.805,6.029,0.044,-0.018,-0.007,103.0,105.0,101.0,13.4,1505.2,328.7,-0.8,1.8,2470.657,13.28,0.047,112.2
2021-12-15T14:13:03,42.805,6.029,0.025,-0.017,-0.009,102.0,104.0,101.0,13.4,1505.2,331.3,-0.7,1.8,2470.655,13.28,0.03,124.2
2021-12-15T14:16:03,42.805,6.029,0.037,-0.002,0.0,102.0,103.0,102.0,13.4,1505.2,324.3,-0.8,1.8,2470.603,13.28,0.037,93.1
2021-12-15T14:19:03,42.805,6.029,0.03,-0.007,0.002,102.0,105.0,101.0,13.4,1505.2,329.6,-0.8,1.8,2470.633,13.28,0.03,103.1
2021-12-15T14:22:03,42.805,6.029,0.047,0.003,0.022,101.0,105.0,101.0,13.4,1505.2,326.9,-0.7,1.8,2470.637,13.28,0.047,86.4
2021-12-15T14:25:03,42.805,6.029,0.056,0.0,0.006,103.0,104.0,101.0,13.4,1505.2,327.1,-0.7,1.8,2470.638,13.28,0.056,90.0
2021-12-15T14:28:03,42.805,6.029,0.037,0.0,-0.012,102.0,104.0,102.0,13.4,1505.2,327.3,-0.7,1.8,2470.597,13.28,0.037,90.0
2021-12-15T14:31:03,42.805,6.029,0.026,0.002,0.006,103.0,104.0,102.0,13.3,1505.2,329.6,-0.7,1.9,2470.589,13.28,0.026,85.6
2021-12-15T14:34:03,42.805,6.029,0.032,0.001,-0.006,103.0,107.0,100.0,13.4,1505.2,326.4,-0.8,1.8,2470.633,13.28,0.032,88.2
2021-12-15T14:37:03,42.805,6.029,0.039,-0.028,-0.018,102.0,103.0,101.0,13.3,1505.2,326.9,-0.8,1.8,2470.612,13.28,0.048,125.7
2021-12-15T14:40:03,42.805,6.029,0.06,-0.001,0.006,102.0,105.0,101.0,13.4,1505.2,326.1,-0.7,1.8,2470.593,13.28,0.06,91.0
2021-12-15T14:43:03,42.805,6.029,0.052,0.006,0.054,102.0,104.0,101.0,13.3,1505.2,324.5,-0.8,1.8,2470.608,13.28,0.052,83.4
2021-12-15T14:46:03,42.805,6.029,0.044,0.0,0.019,103.0,104.0,101.0,13.4,1505.2,328.8,-0.7,1.8,2470.6,13.28,0.044,90.0
2021-12-15T14:49:03,42.805,6.029,0.037,-0.013,0.019,101.0,105.0,101.0,13.4,1505.2,326.8,-0.7,1.8,2470.635,13.28,0.039,109.4
2021-12-15T14:52:03,42.805,6.029,0.034,0.007,-0.011,102.0,105.0,102.0,13.4,1505.2,329.5,-0.7,1.8,2470.609,13.28,0.034,78.4
2021-12-15T14:55:03,42.805,6.029,0.035,-0.005,0.009,103.0,105.0,101.0,13.3,1505.2,328.9,-0.8,1.8,2470.65,13.28,0.035,98.1
2021-12-15T14:58:03,42.805,6.029,0.065,0.018,0.034,103.0,104.0,102.0,13.4,1505.2,331.4,-0.8,1.8,2470.63,13.28,0.067,74.5
2021-12-15T15:04:03,42.805,6.029,0.03,-0.011,0.015,102.0,104.0,101.0,13.4,1505.2,327.8,-0.8,1.8,2470.69,13.28,0.031,110.1
2021-12-15T15:07:03,42.805,6.029,0.057,-0.001,0.003,103.0,105.0,101.0,13.4,1505.2,328.6,-0.8,1.8,2470.686,13.28,0.057,91.0
2021-12-15T15:10:03,42.805,6.029,0.031,-0.013,-0.012,102.0,106.0,101.0,13.3,1505.2,326.0,-0.8,1.8,2470.667,13.28,0.033,112.7
2021-12-15T15:13:03,42.805,6.029,0.073,-0.003,0.018,103.0,106.0,101.0,13.3,1505.2,326.8,-0.8,1.8,2470.637,13.28,0.073,92.4
2021-12-15T15:16:03,42.805,6.029,0.051,0.002,-0.003,103.0,105.0,101.0,13.4,1505.2,326.3,-0.7,1.8,2470.642,13.28,0.051,87.8
2021-12-15T15:19:03,42.805,6.029,0.03,0.003,0.026,102.0,106.0,101.0,13.3,1505.2,327.2,-0.8,1.8,2470.644,13.28,0.03,84.3
2021-12-15T15:22:03,42.805,6.029,0.036,-0.02,-0.016,102.0,105.0,102.0,13.4,1505.2,328.9,-0.8,1.8,2470.644,13.28,0.041,119.1
2021-12-15T15:25:03,42.805,6.029,0.028,0.007,0.0,102.0,107.0,101.0,13.4,1505.2,326.2,-0.8,1.8,2470.641,13.28,0.028,76.0
2021-12-15T15:28:03,42.805,6.029,0.047,0.001,0.026,101.0,106.0,101.0,13.3,1505.2,330.5,-0.8,1.8,2470.659,13.28,0.047,88.8
2021-12-15T15:31:03,42.805,6.029,0.062,-0.02,0.032,101.0,107.0,102.0,13.4,1505.2,329.4,-0.8,1.8,2470.64,13.28,0.065,107.9
2021-12-15T15:34:03,42.805,6.029,0.063,-0.017,0.002,102.0,106.0,101.0,13.4,1505.2,329.1,-0.8,1.8,2470.652,13.28,0.065,105.1
2021-12-15T15:37:03,42.805,6.029,0.047,-0.015,0.004,102.0,105.0,101.0,13.3,1505.2,329.5,-0.7,1.8,2470.652,13.28,0.049,107.7
2021-12-15T15:40:03,42.805,6.029,0.036,-0.001,-0.015,102.0,107.0,101.0,13.3,1505.2,327.7,-0.8,1.8,2470.614,13.28,0.036,91.6
2021-12-15T15:43:03,42.805,6.029,0.094,0.008,0.062,102.0,106.0,101.0,13.4,1505.2,325.5,-0.8,1.8,2470.662,13.28,0.094,85.1
2021-12-15T15:46:03,42.805,6.029,0.05,-0.01,0.0,103.0,104.0,100.0,13.4,1505.2,329.4,-0.8,1.8,2470.618,13.28,0.05,101.3
2021-12-15T15:49:03,42.805,6.029,0.07,-0.01,0.07,102.0,107.0,100.0,13.4,1505.2,331.1,-0.8,1.8,2470.697,13.28,0.07,98.1
2021-12-15T15:52:03,42.805,6.029,0.065,-0.001,0.009,103.0,107.0,100.0,13.4,1505.2,328.3,-0.7,1.8,2470.691,13.28,0.065,90.9
2021-12-15T15:55:03,42.805,6.029,0.059,0.002,0.011,104.0,106.0,100.0,13.4,1505.2,331.5,-0.8,1.8,2470.697,13.28,0.059,88.1
2021-12-15T15:58:03,42.805,6.029,0.052,-0.02,-0.015,102.0,107.0,100.0,13.4,1505.2,324.7,-0.8,1.8,2470.711,13.28,0.055,111.0
2021-12-15T16:04:03,42.805,6.029,0.054,0.004,-0.02,103.0,107.0,100.0,13.4,1505.2,328.1,-0.8,1.8,2470.737,13.28,0.054,85.8
2021-12-15T16:07:03,42.805,6.029,0.075,-0.005,0.03,102.0,107.0,101.0,13.4,1505.2,329.4,-0.8,1.8,2470.743,13.28,0.075,93.8
2021-12-15T16:10:03,42.805,6.029,0.072,-0.01,-0.003,102.0,105.0,101.0,13.4,1505.2,329.6,-0.7,1.8,2470.741,13.28,0.072,97.9
2021-12-15T16:13:03,42.805,6.029,0.053,-0.009,0.008,101.0,105.0,101.0,13.4,1505.2,330.1,-0.7,1.8,2470.752,13.28,0.053,99.6
2021-12-15T16:16:03,42.805,6.029,0.054,0.014,0.017,101.0,107.0,101.0,13.4,1505.2,325.3,-0.8,1.8,2470.713,13.28,0.055,75.5
2021-12-15T16:19:03,42.805,6.029,0.055,0.012,0.007,103.0,105.0,101.0,13.4,1505.2,326.3,-0.8,1.8,2470.728,13.28,0.056,77.7
2021-12-15T16:22:03,42.805,6.029,0.053,0.001,0.008,101.0,105.0,101.0,13.3,1505.2,328.4,-0.7,1.8,2470.719,13.28,0.053,88.9
2021-12-15T16:25:03,42.805,6.029,0.044,-0.005,0.008,102.0,104.0,101.0,13.3,1505.2,329.6,-0.8,1.8,2470.739,13.28,0.044,96.5
2021-12-15T16:28:03,42.805,6.029,0.041,-0.003,0.011,101.0,104.0,100.0,13.4,1505.2,327.3,-0.7,1.8,2470.758,13.28,0.041,94.2
2021-12-15T16:31:03,42.805,6.029,0.054,0.0,0.012,102.0,105.0,102.0,13.4,1505.2,327.3,-0.8,1.8,2470.734,13.28,0.053,90.0
2021-12-15T16:34:03,42.805,6.029,0.065,-0.007,0.015,101.0,105.0,101.0,13.4,1505.2,331.7,-0.7,1.8,2470.756,13.28,0.065,96.1
2021-12-15T16:37:03,42.805,6.029,0.039,-0.013,-0.002,102.0,105.0,101.0,13.4,1505.2,331.2,-0.7,1.8,2470.743,13.28,0.041,108.4
2021-12-15T16:40:03,42.805,6.029,0.041,-0.01,-0.004,103.0,105.0,100.0,13.4,1505.2,331.9,-0.7,1.8,2470.759,13.28,0.042,103.7
2021-12-15T16:43:03,42.805,6.029,0.032,0.012,0.005,101.0,103.0,101.0,13.4,1505.2,330.3,-0.8,1.8,2470.766,13.28,0.034,69.4
2021-12-15T16:46:03,42.805,6.029,0.063,-0.003,-0.017,102.0,105.0,101.0,13.3,1505.2,324.6,-0.8,1.8,2470.751,13.28,0.063,92.7
2021-12-15T16:49:03,42.805,6.029,0.038,-0.002,-0.036,102.0,106.0,101.0,13.4,1505.2,328.4,-0.7,1.8,2470.785,13.28,0.038,93.0
2021-12-15T16:52:03,42.805,6.029,0.057,0.013,0.025,103.0,103.0,101.0,13.4,1505.2,326.6,-0.7,1.8,2470.799,13.28,0.058,77.2
2021-12-15T16:55:03,42.805,6.029,0.096,-0.006,0.063,100.0,108.0,101.0,13.4,1505.2,325.5,-0.7,1.8,2470.75,13.28,0.096,93.6
2021-12-15T16:58:03,42.805,6.029,0.051,-0.001,0.034,101.0,106.0,100.0,13.4,1505.2,327.1,-0.8,1.8,2470.774,13.28,0.051,91.1
2021-12-15T17:04:03,42.805,6.029,0.019,0.033,0.01,102.0,105.0,100.0,13.3,1505.2,326.0,-0.8,1.8,2470.812,13.28,0.038,29.9
2021-12-15T17:07:03,42.805,6.029,0.05,0.011,0.044,102.0,107.0,101.0,13.4,1505.2,328.1,-0.8,1.8,2470.807,13.28,0.051,77.6
2021-12-15T17:10:03,42.805,6.029,0.058,0.004,0.02,101.0,107.0,101.0,13.4,1505.2,326.1,-0.7,1.8,2470.773,13.28,0.058,86.1
2021-12-15T17:13:03,42.805,6.029,0.065,0.001,0.03,102.0,105.0,101.0,13.4,1505.2,326.3,-0.7,1.8,2470.765,13.28,0.065,89.1
2021-12-15T17:16:03,42.805,6.029,0.057,0.005,0.014,102.0,105.0,101.0,13.4,1505.2,326.6,-0.8,1.8,2470.763,13.28,0.057,85.0
2021-12-15T17:19:03,42.805,6.029,0.084,-0.011,0.018,101.0,106.0,101.0,13.4,1505.2,328.3,-0.7,1.8,2470.774,13.28,0.084,97.5
2021-12-15T17:22:03,42.805,6.029,0.041,-0.017,0.016,102.0,106.0,100.0,13.4,1505.2,328.4,-0.8,1.8,2470.808,13.28,0.044,112.5
2021-12-15T17:25:03,42.805,6.029,0.072,-0.003,0.032,101.0,107.0,101.0,13.3,1505.2,324.5,-0.8,1.8,2470.773,13.28,0.072,92.4
2021-12-15T17:28:03,42.805,6.029,0.049,-0.008,0.003,103.0,107.0,100.0,13.3,1505.2,331.2,-0.8,1.8,2470.77,13.28,0.049,99.3
2021-12-15T17:31:03,42.805,6.029,0.078,0.012,0.077,101.0,106.0,100.0,13.3,1505.2,330.8,-0.8,1.9,2470.799,13.28,0.078,81.3
2021-12-15T17:34:03,42.805,6.029,0.078,-0.004,0.01,100.0,104.0,101.0,13.4,1505.2,330.6,-0.8,1.8,2470.76,13.28,0.078,92.9
2021-12-15T17:37:03,42.805,6.029,0.087,0.005,0.033,102.0,106.0,100.0,13.4,1505.2,330.6,-0.8,1.8,2470.783,13.28,0.087,86.7
2021-12-15T17:40:03,42.805,6.029,0.065,-0.012,0.037,100.0,107.0,101.0,13.3,1505.2,328.1,-0.8,1.8,2470.807,13.28,0.066,100.5
2021-12-15T17:43:03,42.805,6.029,0.073,-0.011,0.013,101.0,106.0,101.0,13.3,1505.2,326.4,-0.7,1.8,2470.751,13.28,0.073,98.6
2021-12-15T17:46:03,42.805,6.029,0.059,-0.005,0.002,101.0,106.0,101.0,13.4,1505.2,331.4,-0.7,1.8,2470.753,13.28,0.059,94.8
2021-12-15T17:49:03,42.805,6.029,0.053,0.006,0.008,100.0,107.0,101.0,13.3,1505.2,326.8,-0.7,1.9,2470.777,13.28,0.053,83.5
2021-12-15T17:52:03,42.805,6.029,0.075,-0.011,0.012,100.0,107.0,102.0,13.3,1505.2,331.8,-0.8,1.8,2470.766,13.28,0.075,98.3
2021-12-15T17:55:03,42.805,6.029,0.033,-0.012,0.023,102.0,107.0,102.0,13.4,1505.2,325.6,-0.7,1.8,2470.768,13.28,0.035,110.0
2021-12-15T17:58:03,42.805,6.029,0.028,0.004,0.007,102.0,105.0,101.0,13.3,1505.2,326.3,-0.8,1.8,2470.715,13.28,0.028,81.9
2021-12-15T18:04:03,42.805,6.029,0.054,0.005,0.009,102.0,104.0,102.0,13.4,1505.2,330.5,-0.7,1.8,2470.819,13.28,0.054,84.7
2021-12-15T18:07:03,42.805,6.029,0.051,0.006,0.051,103.0,106.0,101.0,13.4,1505.2,324.8,-0.8,1.8,2470.745,13.28,0.051,83.3
2021-12-15T18:10:03,42.805,6.029,0.059,0.007,0.053,102.0,107.0,100.0,13.3,1505.2,332.1,-0.7,1.8,2470.807,13.28,0.059,83.2
2021-12-15T18:13:03,42.805,6.029,0.034,-0.002,0.032,102.0,105.0,101.0,13.3,1505.2,329.6,-0.8,1.8,2470.812,13.28,0.034,93.4
2021-12-15T18:16:03,42.805,6.029,0.042,0.0,0.016,103.0,105.0,101.0,13.4,1505.2,330.6,-0.8,1.8,2470.815,13.28,0.042,90.0
2021-12-15T18:19:03,42.805,6.029,0.028,0.017,0.018,102.0,104.0,101.0,13.4,1505.2,326.3,-0.8,1.8,2470.78,13.28,0.032,58.7
2021-12-15T18:22:03,42.805,6.029,0.047,0.006,0.003,101.0,105.0,102.0,13.3,1505.2,328.7,-0.8,1.8,2470.77,13.28,0.047,82.7
2021-12-15T18:25:03,42.805,6.029,0.037,0.01,0.02,101.0,107.0,101.0,13.3,1505.2,329.0,-0.7,1.8,2470.761,13.28,0.038,74.9
2021-12-15T18:28:03,42.805,6.029,0.058,-0.005,0.001,102.0,105.0,101.0,13.4,1505.2,329.8,-0.8,1.8,2470.719,13.28,0.058,94.9
2021-12-15T18:31:03,42.805,6.029,0.054,0.0,0.0,100.0,107.0,101.0,13.3,1505.2,329.4,-0.7,1.8,2470.755,13.28,0.053,90.0
2021-12-15T18:34:03,42.805,6.029,0.023,-0.009,-0.012,102.0,106.0,100.0,13.3,1505.2,329.7,-0.8,1.8,2470.776,13.28,0.024,111.4
2021-12-15T18:37:03,42.805,6.029,0.063,-0.001,0.028,102.0,104.0,100.0,13.4,1505.2,324.9,-0.8,1.8,2470.756,13.28,0.063,90.9